Other Public Products
Issued by NWS Grand Forks, ND

Home | Current Version | Previous Version | Text Only | Print | Product List | Glossary On
Versions: 1 2 3 4 5 6 7 8 9 10 11 12 13 14 15 16 17 18 19 20 21 22 23 24 25 26 27 28 29 30 31 32 33 34 35 36 37 38 39 40 41 42 43 44 45 46 47 48 49 50
000
FPUS83 KFGF 250031
OPUFGF
PRAIRIE TO PINES WEATHER ROUNDUP
NATIONAL WEATHER SERVICE EASTERN NORTH DAKOTA/GRAND FORKS ND
700 PM CDT FRI OCT 24 2014

 **SATELLITE DATA USED TO AUGMENT SKY COVER AT AUTOMATED STATIONS**
 *****  WEATHER ACROSS EASTERN NORTH DAKOTA  *****

CITY           SKY/WX    TMP DP  RH WIND       PRES   REMARKS
GRAND FORKS    PTCLDY    62  32  32 W12G20    29.80R
6HR MIN TEMP:  62; 6HR MAX TEMP:  74;

GRAND FORKS AF PTCLDY    62  32  32 W10       29.82R
GRAND CITY NWS   N/A     57 N/A N/A NW7         N/A
BUXTON           N/A     63  29  28 W14         N/A
DEVILS LAKE    PTCLDY    57  34  41 W13       29.85R
6HR MIN TEMP:  57; 6HR MAX TEMP:  68;

FARGO          MOCLDY    66  38  35 W16       29.84R
6HR MIN TEMP:  65; 6HR MAX TEMP:  78;

WAHPETON ARPT  PTCLDY    66  36  32 NW15      29.86R
$$

 *****  WEATHER ACROSS CENTRAL AND WESTERN NORTH DAKOTA  *****

CITY           SKY/WX    TMP DP  RH WIND       PRES   REMARKS
JAMESTOWN      PTCLDY    57  34  41 W10       29.90R
6HR MIN TEMP:  57; 6HR MAX TEMP:  71;

BISMARCK       MOCLDY    62  35  36 W10       29.97R
6HR MIN TEMP:  62; 6HR MAX TEMP:  73;

MINOT          CLEAR     57  26  30 W16       29.91R
6HR MIN TEMP:  57; 6HR MAX TEMP:  66; 6HR PCP: TRACE;

MINOT AFB      CLEAR     53  29  40 W10       29.90R
6HR MIN TEMP:  53; 6HR MAX TEMP:  66;

GARRISON         N/A     53  31  42 W9        29.95R
6HR MIN TEMP:  53; 6HR MAX TEMP:  66;

WILLISTON      MOCLDY    52  27  38 W6        29.98R
6HR MIN TEMP:  52; 6HR MAX TEMP:  63;

DICKINSON      CLOUDY    50  29  44 SW10      30.00S
6HR MIN TEMP:  50; 6HR MAX TEMP:  65;

HETTINGER      CLOUDY    54  33  45 W7        30.05R
6HR MIN TEMP:  54; 6HR MAX TEMP:  67;

$$

 *****  OTHER OBSERVATIONS NORTHEAST NORTH DAKOTA  *****

CITY           SKY/WX    TMP DP  RH WIND       PRES   REMARKS
WALHALLA         N/A     59  32  36 W8        29.78R
LANGDON        FAIR      55  32  41 W21G28    29.81R
CAVALIER       FAIR      59  36  41 W13       29.78R
GRAFTON        FAIR      59  36  41 W13       29.80R
CANDO          FAIR      54  32  43 W15       29.86R
FORT TOTTEN    NOT AVBL
ROLLA          FAIR      54  32  43 W12       29.85S
RUGBY          FAIR      46  34  61 W9        29.88R
 ***** THE ABOVE OBSERVATIONS ARE NON NWS ARE NOT QUALITY
        CONTROLLED AND MAY MIS-REPORT RAIN FOR SNOW...
$$

 *****  OTHER OBSERVATIONS SOUTHEAST NORTH DAKOTA *****

CITY           SKY/WX    TMP DP  RH WIND       PRES   REMARKS
COOPERSTOWN    NOT AVBL
VALLEY CITY    FAIR      59  32  36 W12G20    29.90R
OAKES            N/A     63  39  42 NW10      29.92R
GWINNER        CLEAR     66  39  37 NW15      29.91R
BUFFALO          N/A     59  26  28 W12         N/A
WYNDMERE         N/A     66  41  39 NW12        N/A
 ***** THE ABOVE OBSERVATIONS ARE NON NWS ARE NOT QUALITY
       CONTROLLED AND MAY MIS-REPORT RAIN FOR SNOW...
$$

  *****  WEATHER ACROSS NORTHERN MINNESOTA  *****

CITY           SKY/WX    TMP DP  RH WIND       PRES   REMARKS
FLAG ISLAND    PTCLDY    63  36  36 W18G28    29.65R
WARROAD        PTCLDY    63  37  39 W16G25    29.71R
ROSEAU         CLEAR     61  37  41 W10G21    29.73R
HALLOCK        CLEAR     61  34  36 W12G18    29.76R
THF RVR FALLS  PTCLDY    61  30  31 W13       29.79S
HALSTAD          N/A     62  28  27 W14         N/A
FOSSTON        PTCLDY    61  30  31 W15G26    29.82R
BAUDETTE       MOCLDY    64  33  31 W12G23    29.69R
6HR MIN TEMP:  64; 6HR MAX TEMP:  72;

WASKISH        MOCLDY    57  45  62 SW14G21   29.74R
CROOKSTON      PTCLDY    61  34  36 W15       29.82R
$$
  *****  WEATHER ACROSS CENTRAL AND WEST MINNESOTA  *****

CITY           SKY/WX    TMP DP  RH WIND       PRES   REMARKS
BEMIDJI        PTCLDY    64  39  39 W15       29.78R
PARK RAPIDS    PTCLDY    55  42  61 SW7       29.80R
6HR MIN TEMP:  55; 6HR MAX TEMP:  72;

WADENA         MOCLDY    61  43  51 SW6       29.82R
DETROIT LAKES  MOCLDY    66  39  37 NW15G23   29.85R
MOORHEAD       MOCLDY    68  30  24 W17G23    29.86R
FERGUS FALLS   MOCLDY    64  37  36 NW12      29.85R
ELBOW LAKE     FAIR      65  43  45 W15       29.85R
6HR MIN TEMP:  65; 6HR MAX TEMP:  73;

MORRIS MN      PTCLDY    63  43  48 W8        29.86R
STAPLES        MOCLDY    61  39  44 SW3       29.82R
WHEATON        PTCLDY    63  41  45 W7        29.89R
$$
  *****  WEATHER ELSEWHERE ACROSS MINNESOTA  *****

CITY           SKY/WX    TMP DP  RH WIND       PRES   REMARKS
DULUTH         PTCLDY    62  50  64 SW13      29.77R
6HR MIN TEMP:  62; 6HR MAX TEMP:  69;

INTRNTL FALLS  MOCLDY    64  41  42 SW10      29.66R
6HR MIN TEMP:  64; 6HR MAX TEMP:  70;

ELY            CLEAR     63  39  42 SW7       29.70F
CLOQUET        MOCLDY    59  50  72 SW7       29.78R
BRAINERD       MOCLDY    59  39  47 SW8       29.81R
6HR MIN TEMP:  58; 6HR MAX TEMP:  71;

HIBBING        PTCLDY    60  39  45 SW3       29.74S
6HR MIN TEMP:  60; 6HR MAX TEMP:  72;

ALEXANDRIA     CLOUDY    62  42  47 W6        29.85R
6HR MIN TEMP:  62; 6HR MAX TEMP:  72;

SAINT CLOUD    CLOUDY    63  47  55 SW5       29.83R
6HR MIN TEMP:  63; 6HR MAX TEMP:  72;

MINNEAPOLIS    CLOUDY    64  53  67 S3        29.85R
6HR MIN TEMP:  62; 6HR MAX TEMP:  67;

$$

  *****  WEATHER ACROSS SOUTH DAKOTA  *****

CITY           SKY/WX    TMP DP  RH WIND       PRES   REMARKS
SIOUX FALLS    PTCLDY    62  42  47 NW6       29.93R
6HR MIN TEMP:  62; 6HR MAX TEMP:  76;

BROOKINGS      NOT AVBL
WATERTOWN      PTCLDY    58  41  53 W7        29.92R
6HR MIN TEMP:  58; 6HR MAX TEMP:  74;

HURON          CLEAR     61  36  39 NW10      29.92R
6HR MIN TEMP:  61; 6HR MAX TEMP:  81;

SISSETON         N/A     63  42  46 W8        29.87R
ABERDEEN       CLEAR     66  40  38 W8        29.93R
6HR MIN TEMP:  66; 6HR MAX TEMP:  80;

MITCHELL       CLEAR     70  39  32 CALM      29.93R
PIERRE         CLEAR     65  39  38 N12       29.97R
6HR MIN TEMP:  65; 6HR MAX TEMP:  78;

MOBRIDGE       CLOUDY    65  37  35 NW8       29.96R
RAPID CITY     CLEAR     58  39  49 N8        30.04S
6HR MIN TEMP:  58; 6HR MAX TEMP:  71;

$$

  *****  SOME WEATHER IN NEARBY STATES *****

CITY           SKY/WX    TMP DP  RH WIND       PRES   REMARKS
GLASGOW MT     PTCLDY    54  27  35 NW12      30.02R
6HR MIN TEMP:  54; 6HR MAX TEMP:  60;

GREAT FALLS MT CLOUDY    53  34  48 SW12      30.04S
6HR MIN TEMP:  53; 6HR MAX TEMP:  57;

CHEYENNE WY    CLEAR     66  25  21 SW9       30.20R
6HR MIN TEMP:  66; 6HR MAX TEMP:  77;

SCOTTSBLUFF NE CLEAR     70  32  24 NW7       30.03S
6HR MIN TEMP:  70; 6HR MAX TEMP:  83;

OMAHA NE       MOCLDY    69  56  62 CALM      29.93R
6HR MIN TEMP:  68; 6HR MAX TEMP:  76;

DES MOINES IA  MOCLDY    62  59  90 S5        29.92R
6HR MIN TEMP:  62; 6HR MAX TEMP:  68;

DAVENPORT IA   CLOUDY    65  53  65 W13       29.95R
6HR MIN TEMP:  63; 6HR MAX TEMP:  69;

CHICAGO IL     MOCLDY    61  46  57 S6        29.94S
6HR MIN TEMP:  60; 6HR MAX TEMP:  67;

EAU CLAIRE WI  CLOUDY    57  55  93 SW5       29.87S
6HR MIN TEMP:  57; 6HR MAX TEMP:  60;

LA CROSSE WI   CLOUDY    60  56  86 S6        29.89S
6HR MIN TEMP:  60; 6HR MAX TEMP:  66;

$$

  *****  SOME NATIONAL WEATHER *****

CITY           SKY/WX    TMP DP  RH WIND       PRES   REMARKS
LA GUARDIA NY  PTCLDY    57  47  69 E3        29.80R
6HR MIN TEMP:  57; 6HR MAX TEMP:  62;




USA.gov is the U.S. government's official web portal to all federal, state and local government web resources and services.